Overview Statistics Trail Chart Weather Telemetry Raw packets
 

This is the latest recevied weather packets stored in our database for station/object WW5JC. If no packets are shown the sender has not sent any weather packets the latest 10 day(s).

<< 82 83 84 85 86 87 88 >>
Time Temp. Humidity Pressure Rain* Wind** Luminosity Snow
1788026978 35° C 47% 1019.3 hPa 0 mm - 667 W/m² -
1788026673 35.56° C 48% 1019.6 hPa 0 mm - 660 W/m² -
1788026368 35° C 49% 1019.7 hPa 0 mm - 660 W/m² -
1788026064 35° C 49% 1019.6 hPa 0 mm - 656 W/m² -
1788025761 35° C 49% 1019.8 hPa 0 mm - 655 W/m² -
1788025468 33.89° C 51% 1019.7 hPa 0 mm - 648 W/m² -
1788025152 34.44° C 51% 1020 hPa 0 mm - 644 W/m² -
1788024852 34.44° C 50% 1020.1 hPa 0 mm - 639 W/m² -
1788024548 34.44° C 51% 1020 hPa 0 mm - 636 W/m² -
1788024247 33.89° C 52% 1020.2 hPa 0 mm - 633 W/m² -
1788023943 33.89° C 52% 1020.2 hPa 0 mm - 627 W/m² -
1788023650 33.89° C 52% 1020.4 hPa 0 mm - 623 W/m² -
1788023328 33.89° C 53% 1020.4 hPa 0 mm - 613 W/m² -
1788023028 33.89° C 53% 1020.3 hPa 0 mm - 609 W/m² -
1788022720 32.78° C 54% 1020.5 hPa 0 mm - 598 W/m² -
1788022422 33.33° C 55% 1020.3 hPa 0 mm - 596 W/m² -
1788022118 33.33° C 55% 1020.4 hPa 0 mm - 587 W/m² -
1788021813 32.78° C 56% 1020.5 hPa 0 mm - 580 W/m² -
1788021512 32.22° C 57% 1020.5 hPa 0 mm - 571 W/m² -
1788021211 32.22° C 57% 1020.6 hPa 0 mm - 563 W/m² -
1788020907 33.33° C 56% 1020.6 hPa 0 mm - 555 W/m² -
1788020601 32.22° C 58% 1020.4 hPa 0 mm - 546 W/m² -
1788020297 31.67° C 59% 1020.6 hPa 0 mm - 530 W/m² -
1788019993 31.67° C 60% 1020.6 hPa 0 mm - 525 W/m² -
1788019693 31.67° C 60% 1020.5 hPa 0 mm - 513 W/m² -

* Rain latest hour (hover to see other rain measurements)
** Current wind speed in m/s (hover to see current wind gust speed)